SCP
0 0 0 0 0 0 0 0 0 0 0 0 0 0 0 0 0 0 0 0 0 0 0 0 0 0 0 0 0 0 0 0 0 0 0 0 0 0 0 0 0 0 0 0 0 0 0 0 0
0 0 0 0 0 0 0 0 0 0 0 0 0 0 0 0 0 0 0 0 0 0 0 0 0 0 0 0 0 0 0 0 0 0 0 0 0 0 0 0 0 0 0 0 0 0 0 0 0
0 0 0 0 0 0 0 0 0 0 0 0 0 0 0 0 0 0 0 0 0 0 0 0 0 0 0 0 0 0 0 0 0 0 0 0 0 0 0 0 0 0 0 0 0 0 0 0 0
0 0 0 0 0 0 0 0 0 0 0 0 0 0 0 0 0 0 0 0 0 0 0 0 0 0 0 0 0 0 0 0 0 0 0 0 0 0 0 0 0 0 0 0 0 0 0 0 0
0 0 0 0 0 0 0 0 0 0 0 0 0 0 0 0 0 0 0 0 0 0 0 0 0 0 0 0 0 0 0 0 0 0 0 0 0 0 0 0 0 0 0 0 0 0 0 0 0
0 0 0 0 0 0 0 0 0 0 0 0 0 0 0 0 0 0 0 0 0 0 0 0 0 0 0 0 0 0 0 0 0 0 0 0 0 0 0 0 0 0 0 0 0 0 0 0 0
0 0 0 0 0 0 0 0 0 0 0 0 0 0 0 0 0 0 0 0 0 0 0 0 0 0 0 0 0 0 0 0 0 0 0 0 0 0 0 0 0 0 0 0 0 0 0 0 0
0 0 0 0 0 0 0 -0 0 0 0 0 0 0 0 0 0 0 0 0 0 0 0 0 0 0 0 0 0 0 0 0 0 0 0 0 0 0 0 0 0 0 0 0 0 0 0 0 0
0 0 0 0 0 0 0 -0 -0 -0 0 0 0 0 0 0 0 0 0 0 0 0 0 0 0 0 0 0 0 0 0 0 0 0 0 0 0 0 0 0 0 0 0 0 0 0 0 0 0
0 0 0 0 0 0 0 0 -0 -0 0 0 0 0 0 0 0 0 0 0 0 0 0 0 0 0 0 0 0 0 0 0 0 0 0 0 0 0 0 0 0 0 0 0 0 0 0 0 0
0 0 0 0 0 0 0 0 0 0 0 0 0 0 0 0 0 0 0 0 0 0 0 0 0 0 0 0 0 0 0 0 0 0 0 0 0 0 0 0 0 0 0 0 0 0 0 0 0
0 0 0 0 0 0 0 0 0 0 0 0 0 0 0 0 0 0 0 0 0 0 0 0 0 0 0 0 0 0 0 0 0 0 0 0 0 0 0 0 0 0 0 0 0 0 0 0 0
0 0 0 0 0 0 0 0 0 0 0 0 0 0 0 0 0 0 0 0 0 0 0 0 0 0 0 0 0 0 0 0 0 0 0 0 0 0 0 0 0 0 0 0 0 0 0 0 0
0 0 0 0 0 0 0 0 0 0 0 0 0 0 0 0 0 0 0 0 0 0 0 0 0 0 0 0 0 0 0 0 0 0 0 0 0 0 0 0 0 0 0 0 0 0 0 0 0
0 0 0 0 0 -0 -0 -0 0 0 0 0 0 0 0 0 0 0 0 0 0 0 0 0 0 0 0 0 0 0 0 0 0 0 0 0 0 0 0 0 0 0 0 0 0 0 0 0 0
0 0 0 0 0 -0 -0 -0 0 0 0 0 0 0 -0 -0 -0 0 0 0 0 0 0 0 0 0 0 0 0 0 0 0 0 0 0 0 0 0 0 0 0 0 0 0 0 0 0 0 0
0 0 0 0 0 0 -0 -0 0 0 0 0 0 0 -0 -0 -0 0 0 0 0 0 0 0 0 0 0 0 0 0 0 0 0 0 0 0 0 0 0 0 0 0 0 0 0 0 0 0 0
0 0 0 0 0 0 -0 0 0 0 0 0 0 -0 -0 -0 -0 0 0 0 0 0 0 0 0 0 0 0 0 0 0 0 0 0 0 0 0 0 0 0 0 0 0 0 0 0 0 0 0
0 0 0 0 0 0 0 0 0 0 0 0 0 -0 -0 -0 -0 0 0 0 0 0 0 0 0 0 0 0 0 0 0 0 0 0 0 0 0 0 0 0 0 0 0 0 0 0 0 0 0
0 0 0 0 0 0 0 0 0 0 0 0 -0 -0 -0 -0 -0 0 0 0 0 0 0 0 0 0 0 0 0 0 0 0 0 0 0 0 0 0 0 0 0 0 0 0 0 0 0 0 0
0 0 0 0 0 0 0 0 0 0 0 0 0 -0 -0 -0 -0 -0 0 0 0 0 0 0 0 0 0 0 0 0 0 0 0 0 0 0 0 0 0 0 0 0 0 0 0 0 0 0 0
0 0 0 0 0 0 0 0 0 0 0 0 0 0 0 -0 -0 0 0 0 0 0 0 0 0 0 0 0 0 0 0 0 0 0 0 0 0 0 0 0 0 0 0 0 0 0 0 0 0
0 0 0 0 0 0 0 0 0 0 0 0 0 0 0 -0 -0 0 0 0 0 0 0 0 0 0 0 0 0 0 0 0 0 0 0 0 0 0 0 0 0 0 0 0 0 0 0 0 0
0 0 0 0 0 0 0 0 0 0 0 0 0 0 0 0 0 0 0 0 0 0 0 0 0 0 0 0 0 0 0 0 0 0 0 0 0 0 0 0 0 0 0 0 0 0 0 0 0
0 0 0 0 0 0 0 0 0 0 0 0 0 0 0 0 0 0 0 0 0 0 0 0 0 0 0 0 0 0 0 0 0 0 0 0 0 0 0 0 0 0 0 0 0 0 0 0 0
-0 -0 0 0 0 0 0 0 0 0 0 0 0 0 0 0 -0 0 0 0 0 0 0 0 0 0 0 0 0 0 0 0 0 0 0 0 0 0 0 0 0 0 0 0 0 0 0 0 0
-0 -0 0 0 0 0 0 0 0 0 0 0 0 0 0 0 0 0 0 0 0 0 0 0 0 0 0 0 0 0 0 0 0 0 0 0 0 0 0 0 0 0 0 0 0 0 0 0 0
-0 -0 0 0 0 0 -0 0 0 0 0 0 0 0 0 0 0 0 0 0 0 0 0 0 0 0 0 0 0 0 0 0 0 0 0 0 0 0 0 0 0 0 0 0 0 0 0 0 0
-0 0 0 0 -0 -0 -0 0 0 0 0 0 0 0 0 0 0 0 0 0 0 0 0 0 0 0 0 0 0 0 0 0 0 0 0 0 0 0 0 0 0 0 0 0 0 0 0 0 0
-0 0 0 0 0 -0 -0 0 0 0 0 0 0 0 0 0 0 0 0 0 0 0 -0 -0 -0 0 0 0 0 0 0 0 0 0 0 0 0 0 0 0 0 0 0 0 0 0 0 0 0
Wind_Speed
10 6 2 4 7 5 1 3 2 1 2 2 4 6 7 5 3 4 1 1 2 1 2 2 5 7 8 9 9 10 10 10 10 10 11 10 10 10 10 10 11 11 11 11 12 12 12 12 11
5 3 5 6 6 2 3 3 2 1 3 3 4 5 6 5 3 4 1 1 3 2 2 3 6 7 8 8 9 10 9 10 10 10 10 11 10 10 10 11 11 11 11 11 10 10 10 10 10
4 1 5 5 4 5 6 3 3 2 3 3 4 5 5 3 3 1 1 2 4 3 3 3 7 8 8 8 8 9 9 9 10 10 10 10 10 9 10 10 11 11 10 10 10 10 9 9 10
3 5 6 5 2 3 4 3 2 2 3 4 4 5 4 3 2 1 2 4 5 4 4 4 8 8 9 8 8 9 9 9 9 9 10 9 9 10 10 10 10 11 10 9 9 9 9 9 9
4 5 5 2 2 2 1 1 1 2 2 2 4 5 3 2 4 5 4 5 5 4 4 4 8 8 8 9 9 9 9 9 9 9 9 9 9 9 9 10 10 10 9 9 9 8 8 8 8
5 5 4 3 3 1 1 0 2 3 2 2 3 5 2 1 4 4 5 5 5 5 4 5 8 9 8 8 9 9 8 9 9 9 9 9 9 9 9 9 9 9 8 8 8 8 7 7 8
4 4 4 4 3 2 2 1 2 2 2 0 2 5 2 0 2 4 5 6 5 5 5 5 5 6 7 8 9 9 9 9 9 9 9 9 9 9 9 9 9 8 8 8 7 7 7 7 7
4 5 3 3 4 4 1 2 2 2 1 1 2 5 4 2 2 4 5 5 5 5 5 5 5 5 4 4 8 9 9 9 9 9 10 9 8 8 8 8 8 8 8 8 7 7 7 7 7
4 5 3 4 4 3 1 2 2 3 4 3 2 2 3 4 4 5 5 5 5 5 4 4 4 4 4 4 5 6 8 8 8 7 9 8 4 3 4 6 8 8 7 7 7 7 7 7 6
5 4 4 2 2 3 1 2 2 2 2 2 3 3 4 5 5 5 5 3 3 3 3 3 3 3 3 3 3 2 3 3 4 3 4 3 3 3 5 6 7 7 7 6 6 6 6 5 3
3 3 2 1 1 2 2 1 1 4 2 4 5 4 3 4 4 4 4 3 2 1 2 2 3 3 2 2 2 1 1 2 2 3 3 3 2 2 3 2 3 3 4 3 3 3 3 3 2
3 1 1 0 1 1 2 2 1 2 5 4 5 6 5 5 4 4 4 3 2 1 1 2 2 2 2 2 1 1 1 1 2 2 2 2 2 2 2 2 2 2 2 2 2 2 2 3 2
2 1 1 2 3 2 2 0 1 3 3 3 5 5 5 5 3 3 3 3 3 1 0 1 1 2 1 1 1 2 1 1 1 1 1 2 1 1 1 1 1 2 2 2 2 1 2 2 2
2 2 1 1 0 0 1 2 1 5 3 4 6 5 5 5 4 2 3 2 2 1 0 0 1 1 1 1 1 1 1 1 1 1 2 2 1 1 1 1 1 1 1 1 1 1 1 1 1
2 2 3 2 1 1 2 3 6 6 4 4 5 5 5 5 4 4 4 4 3 3 1 1 1 1 1 1 1 1 1 1 1 1 2 2 2 1 1 1 1 1 1 1 1 1 1 1 2
2 2 2 2 2 2 3 8 5 5 5 5 5 4 4 4 5 4 4 4 3 3 2 1 1 1 0 0 1 1 1 1 1 1 1 2 2 2 1 1 1 1 1 1 1 1 1 1 1
2 1 3 4 2 2 4 8 4 4 6 6 6 5 5 4 3 4 4 4 4 4 3 2 1 1 1 1 1 1 1 1 0 1 1 1 1 2 1 0 1 1 1 1 1 1 1 1 1
4 3 4 5 3 2 5 10 7 5 6 7 7 6 5 6 6 5 5 4 4 3 3 2 2 2 1 1 1 1 1 1 1 0 0 1 1 1 1 1 1 1 0 1 1 1 1 1 1
3 3 5 6 3 3 8 11 10 6 6 6 6 6 7 7 5 4 4 4 3 3 3 2 3 2 1 1 1 1 1 0 1 1 0 1 1 1 1 1 2 1 0 1 1 1 1 1 1
2 4 5 6 3 3 7 12 9 6 8 8 8 8 7 6 4 4 4 4 4 4 3 3 3 3 3 2 2 2 2 1 1 1 1 1 1 2 2 1 1 1 1 1 1 1 0 1 1
4 5 5 5 5 3 4 9 6 4 4 5 6 6 6 7 8 6 4 5 5 5 4 3 3 3 3 3 1 1 1 0 0 1 1 1 1 1 1 1 1 2 1 1 1 1 1 1 1
5 4 4 4 2 4 1 7 8 4 4 6 7 6 6 6 6 6 6 6 6 5 4 3 3 3 3 3 3 3 2 2 2 2 1 1 1 1 1 1 1 2 1 1 2 1 1 1 1
4 2 3 3 3 4 3 5 10 2 5 8 8 8 7 6 6 6 6 7 6 5 4 3 3 3 4 4 4 4 3 2 2 2 1 1 1 1 1 1 1 1 1 2 2 2 1 1 1
1 3 3 1 1 4 6 6 10 5 7 6 6 6 6 6 6 5 4 4 4 4 4 3 4 4 4 4 4 5 4 3 3 3 2 2 1 1 1 2 1 1 2 2 2 2 2 2 2
2 3 3 4 2 7 2 4 11 6 5 5 6 6 5 5 5 5 4 4 4 4 4 4 5 4 4 4 5 5 5 5 5 4 3 3 2 2 2 2 2 2 2 2 2 2 2 2 3
2 3 4 4 5 6 3 7 9 4 3 3 4 4 4 4 5 5 5 5 5 5 5 5 5 4 5 5 5 4 5 4 4 4 4 4 3 3 3 2 2 3 3 3 2 2 3 3 3
3 3 3 3 2 5 7 8 9 2 3 3 3 2 3 4 4 4 4 4 5 5 5 6 6 4 5 5 5 4 4 3 4 4 3 3 3 3 3 3 3 3 3 3 3 3 4 3 4
2 3 3 3 2 6 7 6 6 5 5 5 4 4 4 4 4 4 4 4 4 4 4 5 5 4 4 4 4 4 4 4 4 3 3 3 3 3 3 3 3 3 4 4 3 3 4 4 4
3 2 3 3 3 4 6 9 6 5 5 6 7 5 5 4 4 4 4 4 3 2 3 3 4 4 4 4 4 3 4 4 4 4 4 4 3 3 3 4 4 4 4 4 4 4 4 5 5
4 5 6 4 5 4 4 11 4 4 4 4 5 5 4 4 4 4 4 3 2 2 3 4 4 4 4 4 4 4 4 3 3 4 4 4 4 4 4 4 4 5 4 4 4 5 5 5 5
Wind_Direction
331 330 51 56 59 60 188 248 217 93 58 63 66 81 95 86 96 137 209 110 69 62 338 348 50 60 59 59 61 60 58 56 56 56 58 60 64 69 71 69 67 69 71 72 73 71 70 70 73
327 342 53 60 92 126 240 245 208 181 143 123 64 66 74 73 60 90 30 31 78 67 21 359 56 64 63 64 63 61 61 59 57 57 57 58 60 64 67 68 65 65 67 69 72 73 72 70 71
327 48 78 76 112 179 204 215 198 114 77 87 74 49 71 77 59 73 325 101 78 57 27 12 55 61 63 66 66 64 61 60 59 57 58 58 58 61 63 67 66 63 63 66 68 68 72 71 71
46 47 57 79 155 230 205 201 180 109 61 54 97 79 63 44 83 71 80 89 85 56 30 27 56 60 59 60 67 65 62 61 60 58 59 58 58 59 61 64 68 66 63 64 67 64 65 67 69
60 77 73 80 211 252 239 190 107 80 71 49 89 103 84 25 64 78 78 88 87 62 40 37 52 57 58 57 57 63 61 61 59 59 59 58 57 58 58 62 66 68 66 65 65 65 66 61 63
58 72 102 179 209 235 281 35 102 78 86 71 86 108 127 41 72 80 76 75 83 72 51 49 50 51 53 55 54 56 60 59 59 57 57 58 56 57 58 60 64 66 66 65 66 63 63 64 60
101 101 148 173 179 220 257 41 96 113 84 24 120 116 145 4 82 91 82 71 69 68 56 43 41 43 45 49 52 50 52 57 55 54 54 56 53 54 57 57 59 62 61 62 62 62 60 63 60
112 104 121 174 181 212 244 64 66 81 113 352 96 137 178 214 125 91 85 73 65 61 54 43 37 34 27 36 50 50 48 51 54 51 49 50 51 51 53 51 51 56 60 57 58 60 59 57 56
79 85 176 200 188 191 155 77 32 40 81 41 42 141 160 135 108 87 76 59 50 52 44 40 39 34 25 32 48 51 51 46 50 53 51 49 42 45 46 39 46 52 56 53 53 52 54 47 47
71 134 204 214 174 155 122 109 138 87 65 54 46 55 102 113 107 100 92 79 61 43 38 38 32 32 29 38 42 51 55 50 47 50 53 45 37 38 48 45 45 46 50 48 47 46 48 38 28
85 154 171 2 100 127 117 100 118 139 195 203 178 158 139 118 118 119 120 121 117 96 39 29 28 23 38 37 43 40 47 50 47 46 42 43 41 42 46 46 44 39 40 34 31 33 23 17 14
100 58 139 20 27 79 131 143 106 188 220 198 168 159 158 149 156 157 153 146 119 90 58 11 34 27 31 46 46 46 51 49 43 37 43 55 46 36 39 40 24 27 20 11 14 12 6 3 5
114 128 57 81 62 74 87 180 177 248 232 159 145 153 170 169 174 177 158 146 131 112 81 8 18 46 28 57 51 53 49 60 50 44 44 51 60 44 37 38 23 15 9 3 355 353 353 353 354
122 95 12 341 30 293 142 275 206 246 189 154 156 172 184 177 175 177 161 155 156 158 197 225 12 73 55 67 72 65 35 46 59 48 27 38 47 50 31 29 21 5 347 342 336 329 336 329 343
74 48 339 276 216 191 124 288 233 225 180 178 187 184 180 183 176 189 189 179 177 179 190 212 172 64 85 106 101 75 36 37 46 36 30 33 41 44 44 11 0 336 322 333 342 346 357 358 357
48 57 294 268 177 182 157 257 244 191 175 200 203 189 178 191 191 199 193 184 182 177 185 220 180 82 116 95 134 115 76 40 42 43 29 38 38 34 42 18 333 328 333 350 343 1 8 354 346
31 259 257 279 209 175 195 251 250 200 190 211 212 200 192 193 201 205 202 187 185 185 188 200 190 169 190 156 140 119 103 46 5 47 23 29 33 31 28 325 305 323 341 350 348 2 347 332 335
220 232 254 253 243 213 240 256 260 230 215 222 220 210 206 209 217 208 197 186 183 188 187 188 186 194 203 164 119 94 72 41 358 6 352 20 10 22 23 335 318 340 0 344 3 356 345 305 299
194 223 260 266 254 254 249 261 262 246 232 234 229 219 219 223 225 203 193 181 175 185 190 195 188 205 200 173 180 173 208 269 321 305 360 5 3 4 12 1 334 337 329 319 331 355 345 331 340
233 259 272 289 289 261 269 272 265 228 220 224 223 225 224 224 221 207 203 186 186 194 201 205 203 216 216 192 198 189 194 203 234 272 333 360 16 4 4 7 329 317 316 335 331 356 334 328 0
248 234 249 267 307 290 296 289 260 244 223 234 230 227 224 216 211 207 211 205 194 200 204 212 212 227 215 185 176 164 130 44 318 307 312 333 347 351 339 328 315 315 287 262 296 295 318 293 307
256 245 252 265 282 275 223 284 277 258 261 243 238 234 231 229 218 208 216 211 206 209 203 209 214 229 209 180 178 177 184 212 243 241 248 291 306 321 329 315 314 300 296 251 261 296 291 242 273
239 283 273 263 237 277 253 244 280 274 261 252 239 234 233 224 217 213 219 211 208 204 200 208 215 223 204 192 189 186 195 216 235 230 243 277 292 284 297 292 283 289 286 260 253 277 266 243 253
266 349 344 17 83 266 227 208 275 241 233 251 239 234 230 223 221 215 221 210 202 199 196 203 212 223 203 200 198 192 197 206 226 237 232 245 260 260 271 286 285 288 284 277 254 256 262 257 254
22 63 8 343 324 254 206 216 251 253 242 233 235 234 230 219 214 213 213 215 209 204 202 202 206 223 209 203 205 201 202 203 214 221 220 229 244 258 259 274 271 277 281 280 275 250 258 254 251
229 162 170 227 250 282 293 238 251 267 275 255 244 232 224 225 223 219 213 215 215 212 210 207 210 222 217 209 210 204 204 206 219 221 219 223 230 241 243 248 258 267 273 282 279 259 250 250 250
168 204 198 173 259 272 264 274 291 286 309 310 304 273 239 239 239 231 225 222 218 213 212 204 206 219 214 211 207 205 204 211 225 223 225 229 233 241 236 237 248 263 265 266 263 257 247 248 247
172 158 118 155 231 267 280 268 260 278 278 280 276 264 260 259 259 247 236 233 226 214 210 201 202 213 220 207 205 210 203 215 222 216 223 232 236 237 238 241 242 252 258 260 259 264 251 245 250
177 192 183 185 199 214 273 268 234 239 251 254 256 254 251 252 256 255 250 243 231 212 216 208 205 211 225 213 205 204 211 221 216 220 226 232 237 236 237 244 246 250 254 254 251 259 257 243 248
196 199 172 191 238 220 238 270 265 250 266 259 266 269 267 260 264 261 241 238 236 233 238 218 213 220 215 207 208 207 214 218 222 231 236 235 237 239 240 242 244 248 252 248 248 255 262 244 243